Simultaneous Nadir Overpasses (SNOs) Predictions

Prediction of SNOs between GOES-14 and NPP Satellite Orbit:

Table of predicted SNOs for the next 14.0 days since TLE Epoch: 8/10/2024
Index Date Time (GOES-14) GOES-14 Lat,Lon NPP Lat,Lon Distance(km) Time Diff (sec)
1 08/10/2024 08:24:41 0.06,-108.43 -0.64,-105.40 346.94 80
2 08/11/2024 20:46:37 -0.06,-108.39 -0.60,-110.69 262.96 80
3 08/12/2024 20:30:33 -0.06,-108.38 0.47,-106.17 252.71 80
4 08/14/2024 08:52:21 0.05,-108.41 0.74,-111.44 345.09 80
5 08/15/2024 08:30:56 0.05,-108.40 -0.27,-106.91 169.67 80
6 08/16/2024 20:52:54 -0.04,-108.34 -0.89,-112.22 442.06 80
7 08/17/2024 20:36:49 -0.03,-108.33 0.13,-107.69 73.19 80
8 08/20/2024 08:39:52 0.02,-108.35 0.04,-108.43 9.09 80
9 08/22/2024 20:40:24 -0.02,-108.27 -0.21,-109.21 105.68 80
10 08/23/2024 20:24:18 -0.03,-108.27 0.77,-104.67 409.97 80
